Wind_Speed
14 14 14 15 16 16 16 17 16 16 15 15 15 14 14 13 13 13 11 11 13 12 12 13 12 13 14 14 15 17 17 17 17 16 16 16 16 15 14 14 13 12 12 12 13 12 13 14 16 17 17 17 17 17 18 19 19 20 21 21 22 22 23 24 24 25 25 26 26 26 26 26 27 27 27 27 26 26 25 25 24 23 23 23 23
13 14 15 16 16 16 16 16 16 15 15 15 15 14 13 13 13 13 12 12 13 11 12 13 13 14 15 16 16 17 17 16 16 16 15 15 14 14 13 12 12 12 12 13 13 13 14 16 17 17 17 17 17 17 17 18 19 20 20 21 22 23 24 24 25 25 25 25 25 26 26 26 27 27 27 27 27 27 27 26 25 25 24 24 24
13 14 15 16 16 15 15 15 15 14 14 13 13 13 12 12 13 13 13 13 13 12 15 16 15 15 15 16 16 16 15 15 16 15 14 14 13 13 12 11 11 11 12 13 13 14 15 17 17 17 17 17 17 17 17 18 19 20 21 22 22 23 24 24 24 24 24 24 25 25 25 26 26 27 28 28 28 29 29 28 27 26 25 24 23
13 14 15 15 14 14 13 13 13 12 12 11 11 12 12 13 14 13 13 13 13 15 18 17 17 16 15 15 15 14 13 14 15 14 13 12 11 11 11 10 11 11 12 13 13 14 15 16 16 16 16 16 16 16 17 18 19 20 21 22 22 23 23 23 23 23 23 24 24 25 25 26 27 28 29 30 30 31 31 30 28 27 25 24 23
14 14 15 14 14 14 13 12 12 11 12 12 13 13 14 14 14 13 12 14 14 16 19 17 17 17 14 14 14 13 13 13 13 12 12 11 9 10 10 10 10 11 12 12 13 14 15 15 15 15 15 16 16 17 18 19 19 20 21 22 22 23 23 23 23 24 24 25 25 26 26 27 28 29 30 31 32 32 32 31 28 27 25 24 23
14 14 15 14 14 13 13 12 12 12 12 13 14 14 14 14 15 14 12 14 14 16 19 17 16 16 13 13 12 12 12 12 11 10 11 11 9 9 9 9 10 11 11 12 13 13 13 13 14 15 15 16 17 18 19 19 20 20 21 21 21 22 23 23 24 24 24 25 26 26 27 28 29 30 31 32 33 33 33 31 29 27 26 25 24
13 14 14 14 14 13 13 12 12 12 12 12 12 14 14 14 14 14 13 15 14 15 17 15 14 14 12 13 11 10 11 11 9 9 10 9 9 9 8 8 9 10 10 10 12 12 12 12 13 14 15 16 18 18 18 19 19 19 20 20 21 22 22 23 23 24 25 25 26 27 28 29 30 31 31 32 33 33 33 31 29 27 27 26 25
13 14 14 14 14 13 13 13 12 11 12 11 12 14 15 14 14 14 14 16 16 16 14 13 13 12 11 12 10 10 11 9 9 9 8 8 9 8 7 8 8 10 9 9 11 11 10 11 12 13 14 16 17 18 18 18 18 18 18 19 20 21 22 23 23 24 25 26 27 28 29 29 30 31 32 33 33 33 32 30 28 28 27 27 25
14 14 15 14 14 13 12 12 11 12 12 11 12 14 14 14 14 14 15 16 16 16 15 13 12 10 10 10 8 8 9 7 8 9 7 6 8 8 7 7 8 9 8 7 10 10 10 10 11 12 13 15 16 16 16 16 16 16 17 19 19 20 21 22 23 24 25 26 27 28 29 30 31 32 32 33 33 33 31 29 28 28 28 27 25
15 14 14 14 14 13 12 11 11 12 12 12 13 13 14 14 14 14 14 13 14 16 17 14 9 6 7 9 7 7 8 7 7 8 8 7 6 7 8 7 6 7 6 6 8 8 9 10 9 10 12 14 14 14 14 14 15 16 17 18 19 20 21 22 23 24 25 26 28 29 30 31 32 32 33 33 33 32 30 29 29 29 28 27 25
15 14 13 14 14 12 12 11 11 11 12 12 13 13 14 13 13 14 13 11 12 14 15 14 9 5 6 9 7 6 7 6 6 6 8 8 5 4 6 6 4 5 5 6 6 6 8 9 8 9 11 12 12 12 13 13 14 15 16 17 18 19 20 21 22 23 25 26 28 29 30 31 32 33 33 33 32 30 29 29 29 29 28 27 26
14 14 13 13 12 11 11 11 11 10 10 11 12 13 13 13 13 13 12 10 12 13 12 12 11 9 9 10 8 6 6 5 5 5 7 7 4 2 4 5 4 4 4 5 5 6 8 8 7 6 9 10 9 10 11 12 13 14 15 16 17 18 19 20 22 23 25 27 28 29 30 31 33 33 32 32 30 29 29 29 29 29 28 28 27
12 12 12 11 11 10 10 9 9 9 9 11 12 12 12 12 12 11 11 10 12 14 11 9 10 9 9 10 8 6 6 5 4 6 7 7 5 2 1 2 3 3 3 4 5 6 6 7 6 4 6 8 7 9 10 11 12 13 14 16 17 18 19 20 21 23 25 27 28 29 30 32 33 32 31 30 28 28 28 29 29 29 28 28 28
11 11 11 10 10 10 9 9 9 9 10 11 11 12 12 11 10 10 10 9 11 12 10 10 12 10 9 9 8 5 5 5 5 7 5 4 4 3 3 1 1 3 3 3 5 5 5 6 5 2 4 6 7 8 9 10 12 12 14 16 17 18 19 20 22 23 25 27 28 29 30 32 32 31 30 28 27 27 28 29 29 28 28 29 28
11 10 9 9 10 9 9 9 9 9 11 11 11 11 11 11 10 9 9 10 10 10 10 11 12 11 9 8 8 5 4 4 5 8 3 3 3 4 5 2 6 3 2 1 3 3 4 4 3 3 6 7 8 9 8 9 11 13 14 15 16 18 20 21 23 24 26 27 28 30 31 31 31 30 28 27 26 27 28 28 29 28 28 29 29
10 10 9 9 8 8 8 9 9 9 10 11 11 11 10 10 10 9 9 10 11 11 10 9 9 10 10 8 7 5 6 6 7 9 6 2 1 3 2 6 7 6 5 2 2 4 5 3 3 5 7 8 8 10 10 10 11 12 14 15 17 19 21 22 24 25 27 28 29 30 31 30 30 29 27 26 26 27 28 28 28 28 28 29 30
10 9 8 8 8 7 8 8 8 9 9 9 10 10 9 9 10 10 9 8 10 12 10 8 9 9 8 7 7 5 6 7 7 8 7 8 4 7 4 7 6 8 5 4 5 5 2 2 4 5 7 8 8 9 10 11 11 13 14 15 18 21 22 24 25 27 28 29 30 30 30 29 28 27 25 25 25 26 27 27 28 28 28 29 30
10 9 8 8 8 8 8 9 8 9 9 9 9 9 8 8 9 9 8 7 9 11 9 9 11 9 6 6 6 5 5 5 6 9 9 10 9 8 3 6 7 7 4 5 6 5 3 4 5 5 6 7 9 11 12 13 14 16 17 17 20 22 24 25 27 28 28 29 29 29 28 27 26 25 25 24 25 26 27 27 27 27 28 28 30
9 9 8 7 8 8 8 8 8 8 9 9 8 8 8 8 8 8 8 8 8 10 9 9 12 10 7 7 6 5 5 4 5 8 10 9 10 6 2 3 5 7 7 6 4 4 4 8 9 9 8 7 9 12 14 14 15 16 18 18 20 22 25 27 28 28 28 28 28 28 27 25 24 24 24 24 25 25 26 26 25 26 27 28 29
9 9 8 8 8 8 7 7 8 8 8 8 7 7 7 7 8 8 8 8 9 10 8 8 12 10 8 7 6 6 5 4 4 6 7 6 8 9 5 2 3 2 3 6 4 2 5 7 7 11 13 11 9 10 12 14 16 18 19 19 21 24 26 27 27 27 27 27 27 26 25 24 23 24 24 24 25 25 26 26 24 24 26 27 28
8 8 8 9 9 9 8 8 8 8 8 8 7 6 8 8 8 8 8 8 9 11 9 8 10 9 9 8 5 5 4 3 2 2 3 4 7 10 8 8 9 8 6 8 6 2 4 5 5 9 12 12 11 11 13 15 16 19 21 21 22 24 25 26 25 25 25 25 24 24 23 23 23 23 23 24 25 26 26 25 24 24 25 26 27
9 8 8 8 8 9 9 8 8 8 8 7 7 8 9 9 9 8 9 9 9 9 10 10 9 8 8 8 6 4 3 3 4 3 2 5 8 8 7 8 9 6 6 9 7 3 4 7 8 9 10 11 12 13 15 16 17 20 21 21 22 23 23 23 23 23 23 22 22 22 22 23 23 23 23 24 25 25 26 26 24 24 24 25 26
8 9 8 8 8 8 8 8 8 8 8 8 8 9 9 9 9 9 8 8 8 9 9 9 10 9 8 8 8 6 4 4 5 4 4 6 8 7 6 6 7 6 5 6 6 3 5 10 11 12 13 13 13 14 14 15 17 20 21 21 21 21 21 21 21 21 20 20 20 21 21 22 22 22 23 23 24 25 26 26 25 25 24 24 25
9 9 9 9 9 9 8 8 8 8 8 8 8 8 8 7 8 9 9 9 9 8 8 8 10 10 9 9 9 9 9 8 7 6 6 7 7 5 6 8 8 7 5 6 7 4 5 8 12 15 16 15 15 16 17 17 18 20 21 20 20 20 20 20 19 18 18 18 19 20 21 21 21 22 22 23 24 24 25 26 26 25 24 24 24
10 10 10 9 9 9 9 9 8 8 8 8 8 9 8 7 8 9 8 8 8 8 9 9 9 9 9 9 10 12 12 10 10 10 9 9 9 8 9 11 10 8 7 8 9 7 5 7 11 15 17 17 17 18 19 21 21 20 19 19 19 20 19 19 18 17 17 17 18 19 20 20 20 21 22 22 23 25 25 26 26 25 25 24 23
11 10 10 9 9 9 9 9 8 8 8 9 9 9 8 8 8 9 9 8 8 8 9 9 9 8 9 10 9 11 11 9 10 10 9 9 9 10 12 12 11 10 10 9 9 10 8 9 12 14 16 16 17 19 19 20 20 20 18 18 19 19 18 17 17 16 16 16 17 18 19 20 20 21 22 23 24 25 25 26 26 26 25 23 22
11 11 10 10 10 9 9 9 9 9 9 8 9 9 8 8 8 9 10 9 9 9 10 10 9 8 8 9 9 9 10 9 9 9 9 10 10 11 12 11 10 11 12 11 11 12 11 12 13 14 15 17 17 18 18 20 20 20 19 19 19 18 17 16 15 15 15 16 17 18 19 20 21 21 22 23 24 24 24 25 25 25 24 23 22
11 11 11 11 11 10 10 10 9 9 9 9 8 8 9 9 9 9 9 9 8 9 10 9 9 9 9 9 9 10 10 8 9 10 10 10 10 10 10 11 11 11 12 13 13 13 14 16 17 17 18 19 18 17 18 19 19 19 19 18 17 17 17 16 16 16 16 16 16 17 19 20 20 21 21 22 22 23 24 24 25 24 23 22 21
11 11 12 11 11 11 10 10 9 9 10 10 9 9 10 9 9 8 7 8 8 9 9 9 10 10 10 9 10 11 10 9 9 10 10 10 9 9 10 11 11 11 11 13 13 13 14 15 17 18 18 18 17 16 17 18 18 18 18 16 17 17 17 18 18 18 16 14 14 16 18 19 19 19 20 21 21 22 23 23 24 23 22 21 20
11 11 12 11 11 11 10 10 10 10 11 10 10 10 10 9 8 8 7 7 8 8 9 10 11 12 11 10 10 10 10 11 11 11 10 9 10 10 11 11 11 11 12 12 12 12 13 13 14 16 17 16 16 16 16 18 17 16 16 16 16 17 17 18 18 17 15 12 12 14 16 17 18 19 20 21 21 21 21 22 22 22 21 20 19
11 10 10 10 10 11 10 10 10 10 11 11 10 10 10 9 8 8 7 7 8 8 8 9 11 12 11 10 9 10 11 12 12 12 10 10 10 11 11 11 12 13 12 12 12 12 13 13 13 15 16 15 15 16 16 16 16 15 15 15 16 16 16 17 16 15 15 13 13 15 17 17 17 18 20 21 22 22 21 20 20 20 20 19 18
11 10 10 10 11 11 10 10 10 10 10 10 10 10 9 9 8 8 7 7 7 7 7 8 9 10 9 9 9 10 11 11 12 12 12 12 11 11 12 12 13 13 13 12 12 12 13 13 12 13 15 15 14 14 14 14 15 15 16 16 17 16 17 17 17 16 15 15 17 18 18 18 18 18 19 21 22 23 23 21 20 20 19 18 18
12 10 10 11 11 11 10 10 10 10 10 10 10 9 9 9 8 8 8 8 7 7 8 8 7 7 7 7 8 9 10 11 11 12 12 12 12 12 12 12 13 13 12 11 11 10 11 13 13 12 13 13 13 14 14 14 15 15 15 16 17 17 17 17 17 16 17 19 20 20 20 20 19 18 18 20 22 24 24 23 22 21 19 18 18
12 12 11 12 12 11 10 10 10 9 9 9 9 9 9 8 8 8 8 7 7 7 7 7 6 6 7 7 7 8 8 9 9 10 11 12 12 12 11 11 12 12 10 9 9 9 10 11 12 11 12 12 13 14 14 14 14 14 15 15 16 17 17 16 16 17 19 20 21 21 21 21 21 21 20 21 22 23 24 25 23 21 18 17 18
14 13 13 13 13 12 11 11 10 9 9 9 9 9 9 9 9 9 8 7 6 6 6 5 5 6 6 6 6 7 7 7 8 8 9 10 10 11 11 11 11 11 10 10 10 10 10 10 10 11 12 12 13 14 14 15 15 15 15 16 16 16 15 15 17 19 19 20 21 21 22 22 23 23 22 22 22 22 23 24 23 20 19 18 19
15 15 15 15 14 14 12 11 10 10 10 10 10 9 9 9 9 9 8 7 7 7 6 5 5 5 5 5 5 5 6 6 7 8 8 8 9 10 10 11 11 12 11 11 11 11 11 11 11 12 13 13 14 14 15 16 16 16 16 16 16 15 15 16 18 19 20 21 22 21 22 23 23 24 23 23 23 23 23 23 21 20 19 19 20
16 15 15 15 15 15 14 12 12 12 11 11 10 10 9 10 10 9 9 8 8 7 6 6 5 6 6 5 5 5 6 6 6 7 7 7 8 9 9 10 10 11 11 12 12 12 12 12 12 13 13 14 14 14 16 17 17 17 17 16 15 15 16 17 18 18 19 20 20 20 20 22 22 23 24 24 24 23 23 22 20 19 19 19 20
16 16 16 16 16 17 16 15 14 14 12 11 10 10 10 10 11 10 10 10 9 8 7 7 7 7 7 6 6 6 6 6 6 7 7 8 8 8 9 9 10 10 10 11 12 13 13 14 14 14 14 15 15 16 17 18 18 18 17 17 16 16 17 18 17 17 17 17 18 18 19 21 22 23 24 24 23 22 22 21 19 18 18 19 19
18 17 17 17 17 17 17 16 15 15 14 12 11 10 10 11 11 11 11 11 10 9 8 8 8 9 8 7 8 7 7 7 8 7 8 8 9 9 9 10 11 11 11 12 13 14 14 15 15 15 15 16 17 17 17 17 18 18 19 19 19 18 18 18 17 17 17 17 18 18 18 19 20 21 21 21 20 21 21 20 18 18 19 19 19
19 19 18 17 17 16 16 15 16 16 15 14 13 12 12 11 11 12 12 13 12 11 10 10 10 10 9 9 9 9 9 9 8 8 9 9 9 10 11 12 12 13 13 13 14 15 15 15 15 15 16 16 17 17 17 18 19 20 20 20 20 19 19 17 16 18 19 19 20 19 18 18 18 18 18 17 17 18 19 18 18 18 18 19 19
20 20 19 18 17 17 16 15 16 17 16 15 14 13 13 12 12 13 13 13 13 13 12 11 11 11 11 11 11 11 11 10 9 9 11 12 12 12 12 13 13 14 14 14 15 15 15 16 16 16 17 17 18 18 19 19 20 20 19 18 18 19 19 17 15 16 19 21 21 20 18 18 17 16 15 15 15 16 18 17 16 16 18 19 20
20 20 21 21 20 19 17 15 15 17 17 16 16 15 14 13 13 13 13 13 14 13 12 12 13 13 12 12 12 12 13 12 11 12 14 15 15 14 14 14 14 14 14 14 15 16 17 17 18 19 19 19 19 20 20 20 19 19 18 18 18 18 20 19 16 16 18 21 21 19 17 17 18 16 14 14 15 16 17 17 15 16 17 18 19
21 21 22 22 21 20 18 17 17 18 18 17 17 17 16 14 14 14 14 14 14 14 13 13 14 13 13 14 13 13 14 14 15 15 15 15 15 14 14 14 14 14 14 15 16 17 19 20 20 21 21 21 21 21 21 20 19 18 17 18 19 20 21 22 21 18 18 20 22 20 17 17 19 18 16 16 16 17 18 18 17 16 16 17 18
24 23 23 22 22 21 20 19 19 20 19 18 19 20 18 16 15 16 16 15 15 14 14 14 14 14 14 15 14 14 15 16 15 15 14 14 14 14 14 15 15 15 16 17 17 18 19 21 22 21 21 21 21 20 20 19 18 17 18 18 20 21 22 23 23 21 19 20 22 22 18 18 20 20 18 17 17 17 17 17 17 17 17 17 17
27 26 25 25 24 23 22 21 22 22 21 21 22 22 20 18 17 17 18 18 17 17 16 15 15 16 16 15 15 16 17 17 17 17 17 16 15 16 17 17 17 17 18 19 19 20 20 21 21 20 20 21 21 19 18 18 18 19 19 21 22 23 23 23 22 20 20 22 25 25 21 20 21 21 20 19 18 17 17 17 18 19 19 18 18
30 29 28 28 27 26 26 25 25 26 25 25 24 22 21 20 18 18 20 20 19 19 18 18 17 17 17 17 17 18 18 18 19 20 21 20 19 18 19 20 20 20 20 20 20 20 21 22 22 21 21 21 20 18 18 19 21 22 22 23 24 24 24 24 23 22 23 26 29 29 25 22 22 23 22 21 20 18 18 19 19 20 20 20 19
34 32 32 31 30 30 30 29 29 28 27 27 26 24 24 24 21 20 21 21 21 21 20 19 19 19 19 20 21 21 20 20 21 21 21 22 22 22 22 22 23 22 21 21 20 21 22 23 23 22 22 22 20 19 19 20 23 25 26 27 27 28 29 28 27 26 27 28 30 31 29 25 24 25 24 23 21 19 19 20 20 21 21 21 20
37 37 37 36 34 33 33 33 31 29 28 29 30 28 27 27 24 22 22 23 23 23 22 22 23 23 23 23 23 23 22 23 23 23 22 22 23 23 23 23 23 22 22 21 21 22 23 23 22 21 21 21 20 20 20 21 24 27 29 30 30 31 33 32 30 29 29 28 29 29 30 28 26 26 24 23 22 21 20 20 21 21 20 20 20
34 35 37 38 37 36 36 36 34 32 30 30 31 30 30 29 26 23 22 23 24 24 24 24 25 25 26 25 24 24 24 24 23 23 23 23 22 23 23 22 22 22 22 21 21 22 23 24 24 23 22 21 21 22 22 23 25 28 30 31 31 32 32 32 31 30 29 27 27 27 29 28 27 27 25 23 21 21 21 21 21 21 20 19 20
29 32 34 37 38 40 41 40 37 34 32 32 32 31 28 27 26 24 22 22 23 23 23 23 24 24 25 25 25 25 25 24 23 24 25 25 23 23 22 22 23 23 23 22 22 22 22 23 24 25 25 25 24 24 24 25 27 29 31 32 31 31 31 31 30 30 27 25 24 25 27 27 26 26 27 25 22 19 20 21 21 20 20 20 20
23 26 29 32 34 38 42 43 41 40 37 35 34 31 27 26 26 25 24 22 22 22 22 22 22 22 23 23 23 24 24 23 23 24 25 25 24 23 22 23 24 24 24 25 24 24 24 24 24 25 26 26 27 27 27 28 29 30 30 30 30 30 29 29 28 27 24 22 22 24 25 26 25 25 26 27 24 20 18 19 20 19 20 20 21
Wind_Direction
114 110 109 107 108 109 107 104 103 103 102 101 100 100 100 99 98 93 92 101 100 98 103 100 98 110 121 123 121 117 114 113 110 104 101 98 96 91 89 87 82 73 63 56 53 55 62 70 75 78 79 77 75 72 69 67 66 64 63 61 58 56 53 51 49 46 44 42 40 37 35 33 30 28 26 23 21 18 17 17 16 15 14 12 9
117 112 107 105 107 107 104 104 103 102 100 100 100 101 102 101 99 99 101 106 104 102 108 106 104 113 119 119 118 115 114 113 107 102 98 96 95 92 89 84 77 66 56 54 59 63 72 79 82 82 79 76 72 69 67 66 65 63 61 59 56 54 51 49 48 45 43 40 38 35 33 31 28 25 23 20 17 15 13 13 12 13 12 11 8
118 113 108 107 108 105 102 102 100 100 99 98 102 104 104 104 105 107 106 107 108 111 113 113 115 115 116 117 116 115 114 110 103 97 94 94 94 91 87 81 70 59 55 60 66 73 82 86 85 81 77 74 70 67 66 65 64 62 60 58 55 52 50 49 47 44 41 38 35 33 30 28 25 23 20 17 14 12 10 8 9 9 9 9 6
118 114 112 111 109 105 102 101 100 101 102 102 104 104 106 109 111 113 112 112 115 118 115 117 122 118 117 119 115 114 115 110 101 94 92 92 94 93 86 77 65 55 59 67 73 82 89 88 83 78 75 72 70 69 67 66 65 62 59 56 53 50 47 46 44 41 38 35 31 29 27 25 23 20 17 14 11 8 7 5 5 6 6 5 3
122 118 115 115 112 108 107 107 109 110 110 110 110 112 115 115 115 116 118 116 118 122 118 118 125 120 119 121 118 115 112 105 99 99 100 96 95 96 87 75 62 55 64 74 81 89 92 86 79 75 74 73 73 72 70 67 63 59 56 52 49 46 44 41 38 36 33 30 27 24 23 21 19 16 13 10 7 5 3 2 2 3 3 2 360
124 123 121 120 117 116 118 119 120 120 117 115 117 122 121 120 120 117 118 119 120 127 123 123 128 123 124 127 123 117 109 103 99 99 101 100 99 97 87 74 61 58 67 78 87 94 91 81 74 73 74 76 75 73 70 65 61 56 52 49 46 44 41 38 35 32 29 26 23 20 18 16 14 11 9 6 4 3 1 360 0 2 1 360 358
127 127 125 123 122 122 124 123 123 124 121 120 124 127 125 125 125 121 122 123 123 125 122 124 127 122 124 128 124 116 112 111 110 108 106 108 106 99 90 74 62 64 71 81 90 93 88 77 71 73 77 78 75 72 67 62 58 53 50 48 45 43 40 36 32 28 25 22 19 16 13 12 10 8 6 3 2 1 360 359 0 1 0 358 357
133 131 128 126 127 126 127 126 126 126 125 128 131 130 129 130 129 126 129 131 129 123 118 122 122 119 124 127 125 119 117 122 120 113 112 117 112 99 90 78 69 71 75 87 94 90 84 76 71 75 79 79 75 70 64 59 56 53 50 47 44 42 38 34 29 25 22 20 17 14 11 10 8 6 4 2 1 360 359 0 2 2 0 359 357
136 135 132 130 131 130 131 130 127 127 126 130 135 134 133 135 134 130 134 136 132 124 120 122 119 122 132 129 127 122 116 124 125 116 116 124 119 106 90 75 71 74 73 83 93 90 82 76 74 78 80 78 74 68 65 60 56 52 48 45 41 38 35 31 26 23 20 18 15 12 10 8 6 4 3 1 360 360 0 2 3 2 0 359 359
137 135 134 131 132 132 132 130 128 128 127 130 135 134 135 137 138 136 136 139 138 132 125 119 108 107 134 136 132 124 114 117 129 132 130 126 124 116 97 80 72 72 75 79 83 87 83 76 75 79 81 77 73 69 66 61 55 50 45 41 37 33 30 27 23 19 16 14 12 9 8 6 4 3 1 0 359 0 2 3 3 2 2 1 1
136 136 136 132 134 134 131 128 128 126 125 131 134 135 136 137 141 140 136 137 141 138 129 127 132 133 143 141 127 112 108 108 121 130 129 122 120 123 101 85 74 61 70 74 63 70 78 77 76 80 83 77 72 69 63 58 52 46 41 36 32 29 25 22 18 15 12 10 8 6 5 4 3 2 1 360 360 2 4 4 3 3 3 3 3
137 137 136 133 133 131 130 128 126 123 124 130 133 135 137 136 142 142 135 136 138 136 132 135 143 139 135 134 124 110 98 97 123 132 127 112 81 101 101 74 62 49 59 69 50 50 65 72 75 78 81 76 68 65 58 52 47 41 36 31 26 24 20 16 13 10 8 6 4 3 2 2 1 1 1 360 1 4 5 4 4 4 5 5 4
140 139 136 134 131 127 129 128 126 128 129 131 131 135 138 137 143 142 135 141 141 136 135 136 137 134 136 135 128 123 108 110 139 129 120 101 65 71 103 22 38 52 45 56 52 46 55 70 77 70 74 71 51 48 46 37 35 32 28 24 20 17 14 11 9 7 5 3 2 0 0 360 359 0 0 0 3 5 5 4 4 5 6 6 6
142 140 137 135 133 129 130 129 129 133 132 132 133 137 141 139 143 143 137 143 144 137 135 138 137 137 146 139 126 116 102 129 146 112 85 38 39 60 70 313 306 61 41 31 48 47 54 69 75 33 34 49 27 25 32 24 23 23 20 17 12 10 7 5 4 3 2 0 359 359 359 358 358 359 360 0 4 6 5 4 4 6 7 7 7
144 143 142 141 139 137 137 134 134 137 134 134 137 140 143 143 144 144 143 147 141 134 140 147 144 142 149 141 132 118 97 130 129 110 99 343 358 30 70 210 271 342 348 324 85 67 67 75 68 14 360 16 10 4 13 13 12 12 10 8 4 2 360 359 359 360 359 357 358 357 357 357 356 358 359 1 5 7 5 4 4 6 7 8 8
151 151 152 151 146 143 146 142 141 143 140 139 141 144 149 150 148 147 153 159 151 146 153 161 152 147 155 155 151 142 125 132 109 115 146 108 63 300 117 209 270 341 317 288 52 14 21 21 1 3 348 351 355 352 0 4 2 2 2 359 357 358 355 354 355 355 356 355 356 356 356 356 355 356 359 1 5 6 5 4 3 5 7 8 9
160 163 163 158 150 153 156 151 149 149 146 145 145 149 154 155 157 157 160 169 167 162 159 162 156 152 168 170 158 150 136 138 124 130 127 95 144 239 212 213 287 355 329 339 10 331 315 308 328 340 325 327 337 345 354 357 357 356 355 353 353 353 350 350 352 352 353 353 354 355 355 355 354 355 357 0 5 5 4 4 3 4 7 9 10
168 171 173 161 155 165 164 154 156 156 155 158 156 159 159 159 164 163 164 175 179 174 164 158 159 159 173 173 161 163 150 142 140 140 130 126 177 223 189 201 277 337 357 7 354 312 261 281 321 318 305 327 338 342 348 353 356 353 349 347 346 347 347 349 349 350 351 352 352 353 354 355 353 354 356 360 4 4 3 3 2 3 6 9 11
174 175 177 171 167 172 166 161 165 164 166 169 167 168 160 158 166 164 172 181 181 185 178 165 166 168 174 175 174 180 166 159 160 154 159 165 179 197 145 198 277 333 359 349 336 356 328 307 322 324 321 338 339 337 341 344 347 347 344 340 339 344 346 347 346 347 349 350 351 352 353 354 353 353 355 359 3 3 2 3 3 3 5 8 11
180 181 181 180 182 181 174 177 178 174 180 180 176 176 167 168 174 170 176 182 178 181 182 180 181 181 186 186 180 181 170 163 170 164 171 165 155 167 180 199 218 222 320 293 277 13 323 303 322 323 324 329 328 333 336 335 337 340 341 337 337 343 345 344 343 344 346 347 349 351 352 354 354 353 355 359 1 0 0 2 4 5 5 7 11
186 189 189 186 189 191 187 191 190 186 189 188 184 183 181 180 178 175 178 182 183 182 182 191 193 190 194 192 181 190 190 168 167 161 156 157 161 176 190 195 201 196 211 252 264 301 292 300 312 305 311 314 314 328 333 332 333 335 338 336 336 341 342 341 341 343 345 346 348 351 352 354 354 354 356 359 360 358 358 2 5 6 6 7 9
190 190 192 191 193 197 197 196 199 196 191 192 192 190 189 184 176 180 184 183 185 188 189 192 194 197 201 195 185 194 211 201 198 197 180 181 186 206 220 205 211 226 227 246 268 291 292 302 296 288 298 299 302 322 330 328 327 328 333 333 335 340 340 339 340 343 345 344 347 351 353 354 355 355 357 359 358 356 357 1 5 8 7 7 7
195 193 191 194 196 201 205 203 204 203 196 197 200 197 194 187 182 186 189 189 188 188 192 192 191 198 204 199 193 195 208 210 211 221 224 213 209 224 248 232 232 248 245 264 288 275 277 298 295 290 300 303 308 322 325 319 320 326 330 331 335 341 342 340 341 343 344 345 349 352 352 354 355 356 357 358 357 355 356 360 4 7 9 7 6
201 199 197 200 202 205 209 211 211 212 208 206 208 210 207 198 195 197 194 196 195 190 190 191 194 199 201 199 197 203 209 201 206 229 230 228 237 237 238 248 257 261 256 277 290 249 238 287 297 295 302 308 314 321 322 320 325 329 329 331 337 343 345 342 341 343 345 348 350 351 352 353 354 355 356 355 354 355 357 359 2 6 9 8 6
207 206 204 205 208 210 211 214 214 215 217 215 213 217 216 207 207 210 206 205 202 198 197 196 198 199 201 206 204 211 219 207 205 227 227 219 229 226 227 243 255 260 255 260 278 281 257 256 269 284 297 304 308 317 321 322 327 330 328 331 338 343 344 340 339 342 346 348 349 350 351 351 352 353 353 352 353 355 357 358 360 3 6 8 5
210 211 211 209 212 215 215 216 219 221 221 219 221 225 222 216 214 214 215 217 212 211 212 210 209 204 205 215 216 217 226 224 220 232 237 233 234 227 232 248 252 255 264 264 270 284 281 259 261 279 296 302 305 313 316 318 326 330 329 332 338 343 343 338 338 342 345 347 349 349 348 348 350 351 351 351 352 354 355 356 358 0 3 6 5
215 217 218 215 217 222 223 221 223 229 228 226 229 234 233 230 227 222 220 221 219 222 225 222 221 217 213 221 225 225 232 238 239 242 245 250 257 249 247 258 256 253 265 271 272 280 288 289 288 291 298 301 305 313 317 320 326 328 329 333 339 345 346 340 339 341 343 346 348 347 347 347 348 349 349 350 350 351 352 354 356 359 1 3 4
223 224 223 218 216 220 224 224 224 227 229 231 231 235 237 236 234 232 228 227 227 230 233 232 230 227 224 226 228 232 238 243 246 250 251 255 264 266 261 263 262 256 259 265 270 275 280 288 292 293 297 301 308 318 321 321 325 328 331 336 341 344 345 342 343 343 340 340 343 346 347 345 345 346 346 346 347 348 350 353 355 357 359 360 1
227 228 227 223 220 220 222 224 226 226 226 230 231 234 238 237 239 241 237 237 237 238 238 237 238 238 234 234 236 239 242 244 247 253 261 270 276 273 268 268 271 270 267 267 272 275 278 283 289 293 297 303 311 317 318 321 327 331 332 337 341 341 341 341 343 342 335 332 339 345 344 342 341 342 344 344 344 345 348 352 354 355 357 358 359
226 227 228 228 226 225 226 226 227 228 229 231 231 233 237 235 239 247 248 249 249 249 248 242 241 243 240 238 242 246 247 250 255 259 265 276 281 276 271 276 281 280 279 280 283 286 285 286 292 296 299 306 312 314 316 322 328 331 331 335 338 338 338 338 336 335 332 333 339 341 340 342 342 341 342 342 342 343 346 351 353 353 355 356 357
227 228 231 233 230 226 225 226 229 233 234 235 233 234 235 234 239 248 252 254 253 252 252 245 242 245 246 245 247 250 250 253 258 263 264 268 273 274 275 280 282 284 288 293 297 299 294 292 296 299 302 308 312 314 319 322 325 329 331 332 335 337 337 334 332 333 338 340 340 340 342 345 344 341 341 341 340 340 344 351 355 355 355 356 356
229 228 231 236 234 228 224 224 228 232 235 235 236 236 235 233 239 249 251 250 252 252 248 243 241 243 248 252 255 255 256 258 262 267 270 272 275 277 280 282 282 286 293 297 301 304 300 299 302 302 305 311 316 319 321 321 323 328 331 333 335 337 336 336 338 341 343 342 340 341 343 345 343 342 342 342 339 337 340 349 358 359 356 355 355
236 232 231 234 236 234 230 229 228 231 235 235 238 242 241 237 239 245 250 249 250 251 249 247 247 246 248 252 257 260 260 260 262 266 270 275 279 280 281 284 288 294 298 299 301 302 301 305 310 308 308 314 319 322 323 324 327 329 330 332 333 335 336 339 343 343 340 339 341 342 341 341 341 342 344 342 337 336 338 344 354 360 357 354 354
238 237 234 233 237 238 236 237 234 233 238 240 244 249 250 248 247 246 249 251 250 248 249 253 258 258 258 259 258 259 259 260 261 263 265 269 275 279 282 285 288 294 298 300 303 303 304 310 315 314 313 318 324 325 325 325 326 326 328 330 331 333 335 337 340 339 337 339 341 340 337 337 340 342 342 340 337 337 339 341 349 357 359 358 357
238 239 239 238 240 243 242 245 245 240 241 242 246 251 253 253 253 251 251 251 251 250 249 254 259 260 263 265 263 261 260 260 260 261 261 264 272 281 288 290 291 295 301 307 311 314 316 318 320 319 319 324 326 325 324 324 325 326 327 329 329 331 334 337 338 337 338 339 340 337 336 338 339 338 337 337 339 341 341 341 347 356 0 1 360
240 239 240 241 242 242 241 243 246 246 245 245 247 253 257 255 252 251 251 251 253 255 256 260 264 266 268 268 268 270 271 269 267 268 270 272 276 282 290 295 298 303 308 311 313 318 322 322 322 324 324 326 326 324 322 322 323 323 323 325 327 330 334 336 335 336 337 337 337 338 339 338 334 331 334 339 343 344 342 343 348 355 358 359 358
243 242 243 244 245 243 241 241 244 245 243 244 247 253 260 262 258 256 253 251 252 254 258 265 267 269 269 268 269 271 275 279 278 278 280 279 279 281 286 290 295 302 309 314 317 321 323 323 324 326 325 323 322 322 322 321 322 323 323 323 323 325 329 330 331 331 331 331 334 338 338 334 330 331 338 343 343 342 342 344 349 353 355 355 355
246 245 246 247 248 248 244 241 244 248 245 244 247 250 256 262 263 263 261 255 251 251 256 261 264 265 266 268 272 275 277 280 281 284 287 289 289 290 292 296 301 307 312 314 316 319 320 320 321 322 322 321 322 325 325 323 322 322 322 321 322 325 328 329 331 331 329 331 335 337 335 333 333 336 339 341 340 340 342 344 347 349 350 351 352
248 248 248 250 249 247 243 241 243 247 247 247 246 246 249 254 257 260 262 259 254 252 253 255 258 262 266 270 274 279 282 280 281 286 289 293 299 302 304 306 308 310 312 311 313 315 316 317 318 320 321 322 324 325 323 320 319 321 322 322 325 328 331 334 339 338 337 336 334 333 335 335 335 334 335 338 340 340 341 342 344 345 345 346 348
251 253 252 252 251 246 241 241 244 247 247 248 248 247 247 250 255 257 258 259 258 255 253 256 259 263 268 272 274 278 279 279 286 293 292 293 298 302 304 306 307 308 310 310 311 313 314 315 317 318 318 319 322 323 322 322 323 324 324 324 326 328 331 339 347 344 338 334 331 332 337 336 332 331 334 339 340 338 338 340 342 342 340 340 343
250 253 255 253 252 252 248 243 244 247 247 248 252 252 248 249 254 256 258 260 262 261 262 265 268 269 270 272 274 278 277 277 283 287 287 291 296 298 300 301 304 306 308 311 312 312 313 314 315 314 314 317 320 322 324 325 322 320 322 325 327 328 328 335 345 342 333 329 328 331 338 338 332 332 336 337 335 333 334 337 338 338 338 339 341
247 249 253 251 248 251 252 248 246 248 248 249 252 251 248 250 253 256 259 262 261 261 264 269 271 270 271 273 274 278 280 283 284 281 281 287 292 295 296 297 299 301 304 308 310 311 312 311 312 313 314 318 320 320 321 319 316 316 320 323 324 325 324 326 333 337 333 328 324 328 338 340 332 330 332 330 330 332 331 331 332 335 337 336 335
247 246 247 246 246 247 248 249 250 250 252 254 253 250 247 248 252 256 258 258 260 262 265 269 271 271 270 273 275 279 281 280 279 279 283 289 292 293 294 295 296 299 302 305 308 309 309 309 309 311 313 316 317 316 316 313 312 314 317 319 320 321 322 324 327 332 333 327 321 323 334 338 328 324 324 322 322 325 326 325 326 328 327 325 326
249 251 252 252 253 251 248 250 252 251 254 256 255 253 250 246 248 254 258 258 260 264 266 268 272 272 271 273 277 279 278 275 274 279 283 287 290 291 292 292 294 295 297 299 301 301 301 302 303 306 309 311 312 312 311 310 311 314 315 317 318 318 320 321 322 324 327 325 319 317 324 330 323 317 318 317 314 314 315 315 316 317 316 314 315
244 248 251 255 257 256 254 255 255 252 250 250 250 250 248 244 244 251 257 259 261 262 264 266 268 269 273 278 280 278 278 281 284 286 286 283 281 284 287 289 289 290 291 293 295 295 295 296 297 299 304 306 306 307 307 307 310 312 313 314 314 314 316 316 315 318 323 324 320 314 315 321 318 313 315 316 313 312 311 310 312 313 312 310 308
246 246 248 250 253 255 256 257 256 255 252 250 248 246 245 245 244 246 252 257 259 260 261 263 265 268 272 274 273 270 270 274 278 281 284 284 285 286 288 289 290 290 292 293 294 293 293 293 294 297 302 302 303 305 307 308 310 310 310 311 311 313 313 313 314 319 323 325 322 315 311 313 314 312 313 315 317 318 317 315 314 313 311 310 307
251 252 251 249 249 251 254 254 254 256 259 258 254 248 247 249 247 244 248 253 256 258 260 262 264 266 265 264 265 266 268 270 272 274 277 282 286 289 290 291 292 292 292 293 293 292 291 292 296 301 305 305 304 303 303 307 310 312 313 313 315 316 314 314 317 321 323 323 321 316 314 315 314 311 311 312 312 314 316 314 311 308 308 309 307
253 253 253 251 249 249 250 251 251 252 255 259 260 256 253 254 253 251 252 253 255 256 257 258 259 261 263 265 269 272 274 275 275 275 276 279 283 284 286 288 289 289 290 291 291 291 291 294 296 299 300 301 302 301 303 307 311 312 312 312 313 313 311 312 315 317 319 319 318 316 317 319 317 313 310 308 306 307 308 307 305 305 305 305 305
253 253 254 253 252 250 249 248 248 247 247 251 257 259 258 258 257 256 256 256 257 256 256 256 258 262 266 268 271 273 275 276 276 277 277 277 277 278 281 282 283 283 284 284 284 285 289 293 295 295 294 296 298 300 303 306 307 307 306 306 307 307 307 310 312 313 315 318 318 317 318 319 318 317 315 311 307 305 304 302 301 302 302 301 301
255 255 256 255 253 251 250 249 247 245 243 242 246 252 256 257 257 258 257 256 258 258 256 257 259 261 265 267 270 271 273 275 276 276 276 274 274 276 278 278 279 281 282 282 282 284 286 287 289 290 291 292 292 292 296 299 301 301 302 302 303 305 307 309 310 311 315 319 320 320 319 318 319 319 318 316 312 307 303 300 298 298 299 297 295
255 255 255 255 254 254 254 252 247 243 240 239 242 246 249 249 251 256 257 253 255 260 260 260 260 261 263 266 269 272 274 275 276 276 276 274 275 276 276 276 278 280 280 282 283 284 284 284 284 284 285 286 287 289 292 293 295 297 299 300 302 304 307 310 310 310 314 319 320 318 317 317 318 319 318 316 315 314 309 303 299 297 295 293 291
Height
3221 3222 3223 3223 3224 3225 3226 3227 3227 3228 3229 3230 3230 3231 3232 3232 3232 3232 3234 3234 3235 3236 3236 3237 3239 3239 3240 3241 3242 3243 3244 3244 3245 3245 3245 3246 3246 3246 3247 3247 3247 3248 3248 3248 3248 3248 3248 3247 3247 3247 3246 3246 3246 3246 3245 3244 3244 3244 3243 3243 3242 3241 3241 3240 3239 3238 3237 3236 3235 3234 3233 3231 3230 3229 3227 3226 3224 3222 3221 3219 3217 3216 3214 3213 3211
3223 3224 3224 3225 3226 3226 3227 3228 3228 3229 3230 3231 3231 3232 3233 3233 3233 3234 3235 3236 3236 3237 3238 3239 3240 3241 3242 3243 3244 3245 3245 3246 3246 3246 3247 3247 3248 3248 3248 3248 3249 3249 3249 3249 3249 3249 3249 3249 3248 3248 3248 3248 3247 3247 3247 3246 3246 3245 3245 3244 3244 3243 3242 3241 3241 3240 3239 3238 3237 3235 3234 3232 3231 3229 3228 3226 3224 3222 3220 3219 3217 3215 3213 3211 3210
3225 3225 3226 3226 3227 3227 3228 3229 3229 3230 3231 3232 3233 3233 3234 3234 3235 3236 3237 3237 3238 3239 3239 3241 3242 3243 3244 3245 3246 3246 3247 3247 3247 3247 3248 3248 3249 3249 3249 3250 3250 3250 3250 3250 3250 3250 3250 3250 3250 3250 3250 3249 3249 3249 3248 3248 3247 3247 3246 3246 3245 3244 3243 3243 3242 3241 3240 3239 3238 3236 3235 3233 3232 3230 3228 3226 3224 3222 3220 3218 3216 3214 3212 3211 3209
3225 3226 3227 3228 3228 3228 3229 3230 3231 3231 3232 3233 3234 3235 3235 3236 3236 3237 3238 3239 3240 3240 3241 3243 3244 3245 3246 3247 3247 3248 3248 3248 3248 3248 3249 3250 3250 3251 3251 3251 3251 3251 3251 3251 3251 3251 3251 3251 3251 3251 3251 3251 3250 3250 3250 3249 3249 3248 3248 3247 3246 3246 3245 3244 3243 3242 3241 3240 3239 3237 3236 3234 3232 3230 3229 3226 3224 3222 3220 3217 3215 3214 3212 3210 3208
3227 3228 3228 3229 3229 3230 3230 3231 3232 3233 3234 3235 3236 3236 3237 3237 3238 3239 3240 3240 3241 3242 3243 3244 3245 3246 3247 3248 3249 3249 3249 3249 3249 3250 3250 3251 3252 3252 3252 3252 3252 3252 3252 3252 3252 3252 3253 3253 3253 3252 3252 3252 3252 3251 3251 3251 3250 3250 3249 3248 3248 3247 3246 3246 3245 3244 3242 3241 3240 3238 3236 3235 3233 3231 3229 3226 3224 3222 3219 3217 3215 3213 3211 3209 3207
3228 3229 3229 3230 3231 3232 3232 3233 3234 3235 3235 3236 3237 3238 3238 3239 3239 3240 3241 3242 3243 3244 3244 3246 3247 3247 3248 3249 3250 3250 3250 3250 3251 3251 3251 3252 3253 3253 3253 3253 3253 3254 3254 3254 3253 3254 3254 3254 3254 3254 3253 3253 3253 3253 3253 3252 3252 3251 3250 3250 3249 3248 3248 3247 3246 3245 3243 3242 3240 3239 3237 3235 3233 3231 3229 3226 3224 3221 3219 3216 3214 3212 3210 3208 3206
3229 3230 3231 3232 3233 3233 3234 3235 3235 3236 3237 3237 3238 3238 3239 3240 3240 3241 3242 3243 3244 3245 3246 3247 3248 3249 3249 3250 3251 3251 3251 3252 3252 3252 3252 3253 3253 3254 3254 3254 3255 3255 3255 3255 3255 3255 3255 3255 3255 3255 3255 3254 3254 3254 3254 3253 3253 3252 3252 3251 3250 3250 3249 3248 3247 3245 3244 3242 3241 3239 3237 3235 3233 3231 3229 3226 3224 3221 3218 3216 3214 3211 3209 3207 3205
3231 3232 3232 3233 3234 3235 3235 3236 3236 3237 3238 3238 3239 3239 3240 3240 3241 3242 3243 3244 3245 3246 3248 3249 3249 3250 3251 3251 3252 3252 3252 3253 3253 3253 3254 3254 3254 3255 3255 3255 3255 3255 3256 3256 3256 3256 3256 3256 3256 3256 3256 3255 3255 3255 3255 3254 3254 3253 3252 3252 3251 3250 3249 3248 3247 3246 3244 3243 3241 3239 3237 3235 3233 3231 3229 3226 3223 3221 3218 3215 3213 3211 3208 3206 3204
3232 3233 3234 3234 3235 3236 3236 3237 3237 3238 3239 3239 3240 3240 3241 3241 3242 3243 3244 3245 3245 3246 3248 3250 3250 3251 3252 3252 3253 3253 3253 3254 3254 3254 3255 3255 3255 3255 3256 3256 3256 3256 3257 3257 3257 3257 3257 3257 3257 3257 3257 3256 3256 3256 3256 3255 3254 3254 3253 3252 3252 3251 3249 3248 3247 3246 3244 3243 3241 3240 3238 3236 3233 3231 3228 3226 3223 3220 3217 3214 3212 3210 3208 3205 3203
3233 3234 3235 3235 3236 3237 3238 3238 3239 3240 3240 3240 3241 3241 3242 3242 3243 3244 3245 3246 3247 3247 3248 3250 3252 3252 3252 3253 3254 3254 3254 3254 3255 3255 3255 3256 3256 3256 3256 3257 3257 3257 3258 3258 3258 3258 3258 3258 3258 3258 3258 3257 3257 3257 3256 3256 3255 3254 3254 3253 3252 3251 3250 3249 3247 3246 3245 3243 3241 3240 3238 3236 3233 3231 3228 3225 3222 3219 3216 3214 3212 3210 3207 3205 3202
3234 3235 3236 3236 3237 3238 3239 3239 3240 3240 3240 3241 3242 3242 3242 3243 3244 3245 3246 3247 3248 3248 3248 3250 3252 3253 3253 3254 3255 3255 3255 3255 3256 3256 3256 3256 3257 3257 3256 3257 3258 3258 3258 3259 3259 3259 3259 3259 3259 3259 3258 3258 3258 3257 3256 3256 3255 3255 3254 3253 3252 3251 3250 3249 3248 3247 3245 3243 3241 3240 3238 3236 3233 3231 3228 3225 3222 3219 3216 3214 3211 3209 3206 3204 3201
3234 3235 3236 3237 3238 3238 3239 3240 3240 3241 3241 3242 3242 3243 3243 3244 3245 3246 3247 3248 3248 3249 3250 3251 3252 3253 3253 3254 3255 3256 3256 3256 3256 3257 3257 3257 3258 3257 3257 3258 3259 3259 3259 3259 3259 3260 3259 3259 3260 3259 3259 3258 3258 3257 3257 3256 3255 3255 3254 3253 3253 3251 3250 3249 3248 3247 3245 3243 3241 3240 3238 3236 3233 3231 3228 3225 3222 3219 3216 3213 3211 3209 3206 3203 3201
3235 3236 3237 3238 3239 3239 3240 3241 3241 3242 3242 3243 3243 3244 3244 3245 3246 3247 3248 3248 3249 3250 3251 3252 3252 3253 3254 3255 3256 3256 3256 3257 3257 3257 3257 3258 3258 3258 3258 3259 3259 3260 3260 3260 3260 3260 3260 3260 3260 3260 3259 3258 3258 3258 3257 3257 3256 3255 3255 3254 3253 3252 3251 3250 3248 3247 3245 3243 3241 3239 3237 3235 3233 3230 3228 3225 3222 3219 3216 3214 3211 3209 3206 3203 3201
3236 3237 3238 3238 3239 3240 3241 3241 3242 3243 3243 3243 3244 3245 3245 3246 3247 3248 3248 3249 3250 3250 3251 3252 3253 3254 3255 3255 3256 3256 3257 3257 3257 3257 3258 3259 3260 3260 3260 3260 3259 3260 3260 3260 3261 3261 3260 3260 3260 3260 3259 3259 3259 3259 3258 3257 3257 3256 3255 3254 3253 3252 3251 3250 3248 3247 3245 3243 3241 3239 3237 3235 3232 3230 3228 3225 3222 3219 3216 3214 3211 3209 3206 3203 3201
3237 3238 3238 3239 3240 3240 3241 3242 3243 3244 3244 3244 3245 3245 3246 3247 3248 3248 3249 3250 3251 3251 3252 3253 3253 3254 3255 3256 3256 3256 3257 3258 3257 3258 3260 3261 3261 3261 3262 3261 3261 3261 3261 3261 3261 3261 3261 3260 3260 3260 3259 3259 3259 3259 3258 3258 3257 3256 3255 3255 3254 3252 3251 3250 3248 3246 3245 3243 3241 3239 3237 3234 3232 3230 3228 3225 3222 3220 3217 3214 3212 3209 3206 3204 3201
3238 3239 3239 3240 3241 3241 3242 3242 3243 3244 3244 3245 3245 3246 3247 3247 3248 3249 3250 3250 3251 3252 3253 3254 3254 3254 3255 3256 3256 3257 3257 3258 3258 3260 3261 3262 3262 3263 3263 3263 3262 3262 3261 3261 3261 3261 3261 3260 3260 3260 3260 3260 3259 3259 3258 3258 3257 3256 3255 3255 3254 3252 3251 3250 3248 3246 3244 3242 3240 3238 3236 3234 3232 3230 3228 3225 3222 3220 3217 3215 3212 3209 3207 3204 3201
3238 3239 3240 3241 3242 3242 3243 3243 3244 3244 3245 3245 3246 3247 3248 3248 3248 3249 3251 3251 3251 3252 3253 3254 3255 3255 3256 3256 3257 3257 3258 3258 3259 3260 3261 3263 3264 3264 3264 3263 3263 3263 3262 3261 3262 3262 3262 3261 3260 3261 3261 3260 3260 3259 3258 3258 3258 3257 3256 3255 3253 3252 3251 3249 3248 3246 3244 3242 3240 3238 3236 3234 3232 3229 3228 3225 3223 3220 3218 3215 3212 3210 3207 3204 3201
3239 3239 3240 3241 3242 3242 3243 3244 3244 3245 3245 3246 3247 3247 3248 3249 3249 3250 3251 3252 3252 3252 3253 3254 3255 3256 3256 3257 3258 3258 3259 3259 3259 3261 3262 3263 3264 3264 3265 3264 3263 3264 3263 3263 3263 3262 3262 3261 3261 3261 3261 3260 3259 3259 3258 3258 3258 3257 3256 3255 3253 3252 3250 3249 3247 3245 3243 3241 3239 3238 3236 3234 3232 3229 3227 3225 3223 3221 3218 3216 3213 3210 3208 3205 3202
3239 3240 3240 3241 3242 3243 3243 3244 3245 3246 3246 3247 3247 3248 3248 3249 3250 3250 3251 3251 3252 3253 3253 3254 3254 3255 3256 3257 3258 3258 3259 3260 3260 3261 3262 3262 3263 3264 3265 3266 3265 3264 3264 3263 3263 3262 3262 3261 3260 3260 3260 3260 3260 3259 3259 3258 3258 3257 3256 3255 3253 3252 3250 3248 3247 3245 3243 3241 3239 3237 3235 3234 3232 3229 3227 3225 3223 3221 3219 3216 3214 3211 3208 3205 3202
3240 3241 3241 3242 3242 3243 3244 3245 3245 3246 3246 3247 3247 3248 3248 3249 3250 3250 3250 3251 3252 3252 3253 3254 3254 3255 3256 3257 3257 3258 3259 3260 3260 3262 3262 3263 3264 3264 3265 3265 3265 3265 3264 3263 3263 3264 3263 3263 3261 3260 3259 3260 3260 3260 3259 3258 3257 3256 3256 3254 3253 3251 3249 3248 3246 3244 3242 3240 3238 3237 3235 3234 3232 3229 3227 3225 3223 3221 3219 3217 3214 3212 3209 3206 3203
3240 3241 3242 3242 3243 3243 3244 3245 3245 3245 3246 3247 3247 3248 3248 3249 3250 3250 3250 3251 3251 3252 3253 3254 3254 3255 3256 3257 3258 3258 3259 3260 3261 3262 3262 3263 3263 3264 3264 3264 3263 3264 3264 3263 3263 3263 3263 3262 3262 3261 3260 3259 3259 3259 3259 3258 3257 3256 3255 3253 3252 3250 3249 3248 3246 3243 3241 3240 3238 3236 3235 3234 3232 3229 3227 3225 3223 3221 3219 3217 3215 3212 3210 3207 3204
3240 3241 3241 3242 3243 3244 3244 3244 3245 3245 3246 3247 3247 3248 3248 3249 3249 3249 3250 3251 3251 3252 3252 3253 3254 3255 3256 3257 3258 3259 3260 3260 3260 3261 3262 3263 3263 3263 3264 3264 3263 3263 3264 3263 3263 3262 3262 3262 3261 3261 3260 3259 3258 3258 3258 3257 3256 3255 3254 3253 3251 3250 3249 3247 3245 3243 3241 3239 3238 3236 3235 3233 3232 3229 3227 3225 3223 3221 3219 3217 3215 3213 3210 3208 3205
3239 3240 3241 3242 3243 3243 3244 3244 3245 3245 3246 3247 3247 3247 3248 3248 3249 3249 3250 3250 3251 3252 3252 3253 3254 3255 3256 3257 3258 3259 3260 3261 3261 3261 3262 3262 3263 3263 3263 3263 3263 3263 3264 3263 3262 3262 3262 3262 3260 3259 3260 3259 3258 3258 3257 3257 3256 3254 3253 3252 3250 3249 3248 3246 3244 3242 3241 3239 3238 3236 3235 3233 3231 3229 3227 3225 3223 3221 3219 3217 3215 3213 3211 3208 3206
3239 3240 3241 3242 3243 3243 3244 3244 3245 3245 3246 3247 3247 3247 3248 3249 3249 3249 3250 3250 3251 3251 3252 3253 3253 3254 3255 3256 3257 3258 3258 3259 3260 3260 3261 3261 3262 3263 3262 3262 3262 3263 3263 3262 3262 3262 3262 3261 3259 3258 3259 3259 3258 3257 3257 3256 3255 3253 3252 3251 3249 3248 3247 3245 3244 3242 3241 3239 3237 3236 3235 3233 3231 3229 3227 3225 3223 3221 3219 3217 3215 3213 3211 3208 3206
3239 3240 3241 3242 3243 3243 3244 3244 3245 3245 3246 3247 3247 3248 3248 3248 3249 3249 3250 3250 3251 3251 3252 3252 3253 3254 3255 3255 3256 3256 3257 3258 3259 3258 3258 3259 3260 3261 3261 3260 3261 3261 3262 3261 3261 3261 3260 3260 3259 3258 3258 3258 3257 3256 3255 3254 3253 3253 3251 3250 3248 3247 3246 3244 3243 3242 3240 3239 3237 3236 3234 3233 3231 3229 3227 3225 3223 3221 3219 3217 3215 3213 3211 3209 3206
3238 3240 3240 3241 3242 3243 3244 3244 3245 3245 3246 3246 3247 3247 3248 3248 3248 3249 3250 3250 3251 3251 3252 3252 3253 3254 3255 3255 3255 3256 3257 3258 3258 3257 3257 3258 3259 3259 3260 3260 3260 3260 3261 3261 3260 3259 3258 3258 3258 3258 3258 3257 3257 3256 3255 3253 3253 3252 3250 3249 3248 3247 3245 3244 3243 3241 3240 3239 3237 3235 3234 3232 3230 3229 3227 3225 3223 3221 3219 3217 3215 3213 3211 3209 3207
3238 3239 3240 3241 3242 3243 3243 3244 3244 3245 3245 3246 3246 3247 3247 3248 3248 3249 3249 3250 3251 3251 3252 3252 3253 3253 3254 3254 3255 3255 3256 3257 3257 3257 3257 3258 3258 3258 3258 3259 3259 3259 3260 3260 3259 3258 3257 3257 3257 3256 3256 3255 3255 3255 3254 3253 3252 3251 3250 3248 3247 3246 3245 3243 3242 3241 3240 3238 3237 3235 3234 3232 3230 3228 3226 3225 3223 3221 3219 3217 3215 3213 3211 3209 3207
3238 3239 3240 3241 3242 3242 3243 3243 3244 3245 3245 3246 3246 3247 3247 3248 3248 3249 3249 3250 3250 3251 3251 3252 3253 3253 3253 3254 3254 3254 3255 3256 3256 3256 3256 3257 3257 3257 3257 3257 3257 3258 3258 3258 3258 3257 3257 3256 3255 3255 3254 3254 3254 3254 3253 3252 3251 3250 3249 3248 3246 3245 3244 3243 3242 3240 3239 3238 3237 3235 3234 3232 3230 3228 3227 3225 3223 3221 3219 3217 3215 3213 3211 3209 3207
3237 3238 3239 3240 3241 3241 3242 3243 3244 3244 3245 3245 3246 3246 3247 3247 3248 3248 3249 3250 3250 3251 3251 3251 3252 3252 3252 3253 3253 3253 3254 3255 3255 3255 3256 3256 3256 3256 3255 3255 3256 3256 3256 3256 3256 3256 3256 3256 3255 3254 3253 3253 3253 3252 3252 3251 3250 3249 3248 3247 3246 3244 3243 3242 3241 3240 3239 3238 3236 3235 3234 3232 3230 3228 3226 3225 3223 3221 3219 3217 3215 3213 3211 3209 3208
3237 3238 3239 3239 3240 3240 3241 3242 3243 3243 3244 3245 3246 3246 3246 3247 3247 3248 3248 3249 3249 3250 3250 3250 3251 3251 3252 3252 3253 3253 3253 3254 3254 3254 3255 3256 3255 3255 3254 3254 3255 3255 3255 3255 3255 3255 3255 3255 3254 3253 3252 3252 3252 3251 3250 3249 3248 3248 3247 3246 3245 3243 3242 3241 3240 3240 3238 3237 3236 3235 3233 3231 3230 3228 3226 3224 3222 3221 3219 3218 3216 3213 3211 3209 3208
3237 3237 3238 3239 3240 3240 3241 3241 3242 3243 3243 3244 3245 3245 3246 3246 3247 3247 3248 3248 3248 3248 3249 3249 3250 3250 3251 3251 3252 3253 3253 3253 3253 3254 3254 3254 3254 3254 3253 3253 3253 3253 3254 3254 3254 3254 3254 3254 3253 3252 3251 3251 3250 3250 3249 3248 3247 3247 3246 3245 3244 3243 3242 3241 3240 3239 3237 3236 3235 3234 3232 3231 3229 3227 3225 3224 3222 3220 3219 3218 3216 3214 3211 3210 3208
3236 3237 3237 3238 3239 3240 3240 3241 3241 3242 3243 3243 3244 3244 3245 3245 3246 3246 3246 3247 3247 3247 3248 3248 3249 3249 3250 3250 3251 3251 3252 3252 3253 3253 3253 3253 3253 3253 3252 3252 3252 3252 3253 3253 3253 3253 3252 3252 3252 3251 3250 3250 3249 3248 3248 3247 3246 3245 3245 3244 3243 3242 3241 3240 3239 3237 3236 3235 3234 3232 3231 3229 3228 3226 3225 3223 3221 3220 3218 3217 3216 3214 3212 3210 3208
3235 3236 3237 3237 3238 3239 3239 3240 3240 3241 3242 3243 3243 3244 3244 3245 3245 3245 3246 3246 3246 3247 3247 3248 3248 3249 3249 3249 3250 3250 3251 3251 3252 3252 3252 3252 3252 3252 3252 3252 3251 3251 3252 3252 3252 3252 3251 3250 3250 3250 3249 3248 3248 3247 3246 3246 3245 3244 3243 3243 3242 3241 3240 3239 3237 3236 3235 3234 3232 3231 3229 3228 3227 3225 3224 3223 3221 3219 3218 3217 3216 3214 3212 3210 3208
3234 3235 3236 3236 3237 3238 3238 3239 3240 3240 3241 3242 3242 3243 3243 3244 3244 3245 3245 3246 3246 3246 3247 3247 3247 3248 3248 3248 3249 3249 3250 3250 3251 3251 3251 3251 3251 3251 3251 3251 3250 3250 3250 3250 3250 3250 3250 3249 3249 3249 3248 3247 3246 3245 3245 3244 3244 3243 3242 3242 3241 3240 3239 3238 3237 3235 3234 3233 3231 3230 3228 3227 3225 3224 3223 3222 3221 3219 3217 3216 3215 3214 3212 3210 3208
3233 3234 3235 3235 3236 3237 3237 3238 3239 3240 3241 3241 3241 3242 3243 3243 3244 3244 3244 3245 3245 3245 3246 3246 3247 3247 3248 3248 3248 3249 3249 3249 3250 3250 3250 3250 3250 3250 3250 3250 3250 3249 3249 3249 3249 3249 3249 3248 3248 3247 3247 3246 3245 3244 3244 3243 3242 3242 3241 3241 3240 3239 3238 3236 3235 3234 3233 3231 3230 3229 3227 3225 3224 3223 3222 3221 3220 3218 3217 3215 3214 3213 3212 3210 3208
3231 3233 3234 3234 3235 3236 3237 3238 3239 3239 3240 3240 3241 3241 3242 3242 3243 3244 3244 3244 3245 3245 3245 3246 3246 3246 3247 3247 3248 3248 3248 3249 3249 3249 3249 3249 3249 3249 3249 3249 3249 3248 3248 3248 3248 3248 3247 3247 3247 3246 3245 3245 3244 3243 3243 3242 3241 3241 3240 3239 3238 3237 3236 3235 3234 3233 3232 3230 3229 3227 3226 3225 3223 3222 3221 3220 3219 3218 3216 3215 3213 3212 3211 3210 3208
3230 3232 3233 3234 3235 3235 3236 3237 3238 3238 3239 3239 3240 3241 3241 3242 3242 3243 3243 3243 3244 3244 3245 3245 3245 3246 3246 3246 3246 3247 3247 3248 3248 3248 3248 3248 3248 3248 3248 3248 3248 3248 3247 3247 3247 3246 3246 3246 3245 3245 3244 3244 3243 3242 3241 3240 3240 3239 3238 3237 3237 3236 3235 3234 3233 3232 3231 3229 3228 3226 3225 3224 3223 3221 3220 3219 3218 3216 3215 3214 3212 3211 3210 3209 3208
3229 3230 3231 3232 3234 3234 3235 3235 3236 3237 3238 3238 3239 3240 3240 3241 3241 3242 3242 3243 3243 3243 3244 3244 3244 3245 3245 3245 3245 3246 3246 3246 3246 3247 3247 3247 3247 3247 3247 3247 3247 3247 3246 3246 3245 3245 3245 3244 3244 3244 3243 3242 3242 3241 3240 3239 3239 3238 3237 3236 3236 3235 3234 3233 3232 3231 3229 3228 3227 3226 3225 3223 3221 3220 3219 3218 3217 3215 3214 3213 3212 3211 3210 3209 3208
3227 3228 3230 3231 3232 3233 3233 3234 3235 3236 3237 3237 3237 3238 3239 3240 3240 3241 3241 3241 3242 3242 3242 3242 3243 3244 3244 3244 3244 3244 3245 3245 3245 3245 3246 3246 3246 3246 3246 3246 3246 3245 3245 3245 3244 3244 3243 3243 3243 3242 3242 3241 3241 3240 3240 3239 3238 3237 3235 3234 3234 3233 3233 3232 3230 3229 3228 3227 3226 3225 3224 3222 3220 3219 3218 3217 3215 3214 3213 3212 3211 3210 3209 3208 3207
3224 3226 3227 3228 3230 3231 3232 3232 3233 3234 3235 3236 3236 3237 3237 3238 3239 3239 3240 3240 3240 3241 3241 3241 3242 3242 3242 3243 3243 3243 3243 3244 3244 3244 3244 3244 3245 3245 3245 3245 3245 3245 3244 3244 3243 3243 3242 3242 3241 3241 3240 3240 3240 3239 3238 3237 3236 3235 3234 3232 3232 3231 3231 3230 3229 3228 3226 3225 3224 3223 3223 3221 3219 3218 3217 3216 3214 3213 3212 3211 3210 3209 3208 3207 3206
3222 3223 3224 3226 3227 3228 3230 3231 3232 3232 3233 3234 3235 3236 3236 3236 3237 3237 3238 3239 3239 3240 3240 3241 3241 3241 3241 3241 3241 3242 3242 3242 3242 3243 3243 3243 3243 3243 3244 3244 3243 3243 3243 3242 3242 3242 3241 3241 3240 3240 3239 3239 3238 3237 3236 3235 3234 3233 3232 3231 3230 3229 3228 3229 3229 3228 3225 3224 3222 3222 3221 3220 3218 3217 3216 3215 3213 3212 3211 3210 3209 3208 3207 3206 3205
3220 3221 3222 3223 3225 3225 3227 3229 3230 3230 3231 3232 3233 3234 3234 3235 3235 3235 3236 3238 3238 3238 3239 3239 3240 3240 3240 3240 3240 3240 3240 3240 3240 3241 3241 3241 3241 3242 3242 3242 3242 3241 3241 3241 3241 3240 3240 3239 3239 3238 3237 3237 3236 3235 3234 3233 3232 3231 3230 3229 3228 3227 3226 3226 3227 3227 3225 3222 3220 3220 3220 3219 3217 3216 3215 3214 3212 3211 3209 3209 3208 3207 3206 3205 3204
3217 3218 3219 3219 3221 3222 3224 3226 3227 3228 3229 3230 3231 3232 3232 3233 3233 3234 3235 3236 3237 3237 3237 3238 3238 3238 3239 3239 3239 3239 3239 3239 3239 3239 3239 3239 3240 3240 3240 3240 3240 3239 3239 3239 3239 3238 3238 3237 3237 3236 3235 3235 3234 3233 3232 3231 3230 3229 3229 3228 3227 3226 3225 3224 3223 3224 3223 3221 3219 3218 3218 3218 3216 3214 3214 3213 3211 3209 3208 3207 3206 3205 3205 3204 3203
3216 3217 3217 3217 3218 3219 3220 3222 3224 3225 3226 3227 3229 3230 3231 3231 3231 3232 3233 3233 3234 3235 3236 3236 3237 3237 3238 3238 3238 3238 3237 3237 3236 3237 3238 3238 3238 3238 3238 3238 3238 3238 3237 3237 3237 3236 3236 3235 3235 3234 3234 3233 3232 3231 3230 3229 3229 3228 3227 3227 3225 3224 3223 3222 3221 3221 3221 3219 3217 3215 3216 3216 3214 3212 3212 3211 3209 3208 3207 3205 3204 3203 3203 3202 3201
3214 3216 3217 3217 3218 3218 3217 3219 3222 3222 3222 3223 3224 3226 3228 3229 3229 3230 3230 3231 3232 3233 3234 3234 3235 3235 3236 3236 3236 3236 3236 3235 3234 3235 3235 3236 3236 3236 3236 3236 3236 3236 3235 3235 3234 3234 3233 3233 3232 3232 3231 3231 3230 3229 3229 3227 3227 3226 3225 3225 3224 3222 3221 3220 3219 3219 3218 3217 3214 3212 3213 3213 3212 3210 3210 3209 3207 3206 3205 3204 3203 3202 3201 3200 3199
3211 3213 3214 3214 3216 3216 3216 3217 3219 3218 3218 3220 3222 3223 3224 3226 3227 3228 3228 3229 3229 3230 3231 3232 3232 3233 3233 3233 3233 3233 3233 3233 3232 3232 3233 3233 3233 3234 3234 3234 3234 3234 3233 3233 3232 3231 3230 3230 3229 3229 3229 3228 3228 3227 3227 3226 3225 3224 3223 3222 3221 3220 3219 3218 3217 3216 3216 3214 3212 3210 3210 3211 3209 3207 3207 3206 3205 3204 3203 3202 3201 3200 3199 3198 3197
3207 3208 3209 3210 3212 3213 3214 3214 3215 3215 3217 3219 3220 3220 3221 3223 3224 3225 3226 3226 3227 3227 3228 3229 3229 3229 3229 3229 3229 3229 3230 3230 3230 3230 3230 3230 3230 3230 3231 3231 3231 3231 3231 3230 3230 3228 3228 3227 3227 3227 3227 3226 3226 3225 3225 3224 3223 3221 3220 3219 3218 3216 3215 3214 3214 3214 3213 3212 3210 3207 3206 3207 3206 3204 3204 3203 3202 3201 3201 3200 3199 3198 3196 3196 3195
3203 3204 3205 3206 3208 3209 3210 3210 3212 3213 3214 3216 3217 3218 3219 3219 3221 3222 3223 3223 3224 3225 3225 3225 3225 3225 3225 3225 3226 3227 3227 3228 3228 3228 3228 3228 3228 3228 3228 3228 3228 3228 3228 3228 3227 3226 3225 3225 3225 3225 3224 3224 3223 3223 3222 3221 3220 3219 3218 3217 3216 3214 3212 3211 3212 3212 3211 3210 3208 3205 3203 3203 3202 3201 3201 3200 3199 3199 3198 3197 3196 3195 3194 3193 3193
3197 3198 3200 3201 3203 3204 3205 3207 3208 3209 3211 3212 3214 3215 3216 3217 3218 3219 3220 3221 3221 3222 3222 3222 3222 3222 3223 3223 3224 3225 3225 3225 3226 3226 3226 3225 3225 3225 3225 3225 3225 3225 3225 3225 3224 3224 3223 3223 3222 3222 3221 3221 3220 3220 3219 3219 3218 3217 3215 3214 3214 3212 3210 3209 3209 3208 3208 3207 3205 3203 3201 3200 3199 3198 3197 3197 3196 3195 3195 3194 3193 3192 3191 3190 3190
3192 3193 3195 3196 3198 3199 3200 3202 3204 3205 3207 3209 3210 3212 3213 3215 3215 3216 3217 3218 3218 3219 3220 3220 3220 3220 3220 3221 3221 3222 3222 3223 3223 3223 3223 3223 3222 3222 3222 3222 3222 3222 3222 3222 3222 3222 3222 3221 3221 3220 3219 3219 3218 3218 3217 3217 3216 3215 3213 3212 3211 3209 3208 3207 3206 3205 3205 3205 3203 3201 3199 3198 3197 3195 3193 3193 3193 3193 3192 3190 3190 3189 3188 3187 3186
3188 3189 3190 3192 3193 3193 3194 3196 3198 3200 3203 3205 3207 3209 3210 3212 3213 3214 3214 3215 3216 3216 3217 3217 3218 3218 3218 3218 3218 3219 3219 3220 3220 3220 3220 3220 3219 3219 3219 3219 3219 3219 3219 3219 3219 3219 3219 3218 3218 3218 3217 3217 3216 3215 3215 3214 3213 3212 3211 3210 3208 3207 3206 3206 3205 3204 3203 3203 3202 3199 3197 3196 3195 3194 3191 3188 3188 3189 3189 3188 3187 3187 3185 3184 3183